Regional Weather Roundup
Issued by NWS Charleston, SC

Current Version | Previous Version | Graphics & Text | Print | Product List | Glossary On
Versions: 1 2 3 4 5 6 7 8 9 10 11 12 13 14 15 16 17 18 19 20 21 22 23 24 25 26 27 28 29 30 31 32 33 34 35 36 37 38 39 40 41 42 43 44 45 46 47 48 49 50
000 ASUS42 KCHS 140113 RWRCHS REGIONAL WEATHER ROUNDUP NATIONAL WEATHER SERVICE CHARLESTON SC 800 PM EST SAT FEB 13 2016 NOTE: "FAIR" INDICATES FEW OR NO CLOUDS BELOW 12,000 FEET WITH NO SIGNIFICANT WEATHER AND/OR OBSTRUCTIONS TO VISIBILITY. NOT ALL STATIONS ARE QUALITY CONTROLLED BY THE NATIONAL WEATHER SERVICE. USE DATA WITH CAUTION...ESPECIALLY DEWPOINT OBSERVATIONS. SCZ027-030-031-034>040-042>050-140200- ...SOUTHEAST SOUTH CAROLINA... CITY SKY/WX TMP DP RH WIND PRES REMARKS N CHARLESTON CLEAR 40 14 34 N8 30.33R WCI 34 WATERFRONT PRK N/A 44 23 43 N5 30.17R MOUNT PLEASANT FAIR 36 28 75 CALM 30.34R JOHNS ISLAND FAIR 39 27 60 CALM 30.34R PINOPOLIS N/A 45 25 45 NE7 30.26R MONCKS CORNER FAIR 34 14 44 CALM 30.34R SUMMERVILLE FAIR 39 19 45 N5 30.35R WCI 36 BEAUFORT MCAS CLEAR 39 31 72 CALM 30.33R BEAUFORT ARPT FAIR 39 30 70 CALM 30.33R HILTON HEAD IS CLEAR 41 32 70 CALM 30.34R WALTERBORO CLEAR 41 18 38 N5 30.35R ALLENDALE FAIR 39 30 70 CALM 30.33R ...SOUTHERN MIDLANDS AND PEE DEE... CITY SKY/WX TMP DP RH WIND PRES REMARKS GEORGETOWN FAIR 32 19 59 N5 30.35R WCI 27 KINGSTREE FAIR 36 16 44 CALM 30.36R ORANGEBURG CLEAR 38 8 29 NE5 30.35R WCI 34 BARNWELL FAIR 37 27 65 CALM 30.34R AIKEN FAIR 32 23 69 NE6 30.36R WCI 26 MANNING FAIR 32 21 64 N5 30.35R WCI 27 COLUMBIA CLEAR 40 3 21 N3 30.35R SUMTER CLEAR 34 16 47 N3 30.34R FLORENCE CLEAR 34 13 41 NE7 30.37R WCI 28 MYRTLE BEACH CLEAR 36 12 38 N9 30.37R WCI 29 N MYRTLE BEACH CLEAR 32 16 51 NE5 30.36R WCI 27 $$ GAZ063-065-086>088-099>101-113>116-118-119-134>141-150-140200- ...SOUTHEAST GEORGIA... CITY SKY/WX TMP DP RH WIND PRES REMARKS SAVANNAH ARPT CLEAR 41 27 57 CALM 30.33R HUNTER AAF CLEAR 41 25 52 CALM 30.30R FORT STEWART CLEAR 38 29 70 CALM 30.31R STATESBORO CLEAR 40 27 59 CALM 30.33R SYLVANIA CLEAR 38 31 78 CALM 30.34R CLAXTON FAIR 39 32 78 CALM 30.33R ...CSRA...CENTRAL AND FAR SOUTHEAST GEORGIA... CITY SKY/WX TMP DP RH WIND PRES REMARKS THOMSON CLEAR 39 18 43 CALM 30.39R AUGUSTA-BUSH CLEAR 33 20 58 NW3 30.34R AUGUSTA-DANIEL CLEAR 42 13 30 NW5 30.34R SWAINSBORO FAIR 41 14 33 NW5 30.35R VIDALIA CLEAR 43 18 36 N6 30.34R EASTMAN FAIR 42 14 32 CALM 30.38R HAZLEHURST FAIR 46 16 29 NW5 30.33R ALMA CLEAR 41 24 51 CALM 30.33R WAYCROSS CLEAR 45 29 53 N3 30.33R JESUP FAIR 43 30 61 NW3 30.33R BAXLEY FAIR 45 21 39 NW5 30.33R BRUNSWICK CLEAR 41 36 81 CALM 30.34R SAINT SIMONS CLEAR 43 36 76 NE3 30.32R $$ SCZ027-028-034-036>038-045-046-048>050-GAZ119-141-140200- ...LAKE AND SUPPLEMENTAL COASTAL OBSERVATIONS... STATION/POSITION TIME TEMP WIND PRES WAVE SWELL AIR SEA DIR/SP/G HT/PER HT/PER/DIR (UTC) (F) (DEG/KT/KT) (MB) (FT/S) (FT/S/D) WINYAH BAY NOT AVBL LAKE MURRAY 0000 39 20/ 1/ 4 1026.4R ACE BASIN NERRS 2345 41 CALM 1026.0 FORT PULASKI 0000 45 49 1026.7R SAPELO ISLAND 0000 43 CALM 1026.0R $$ ANZ835-935-AMZ111-154-330-350-352-354-370-450-454-472-140200- ...C-MAN AND BUOY OBSERVATIONS... STATION/POSITION TIME TEMP WIND PRES WAVE SWELL AIR SEA DIR/SP/G HT/PER HT/PER/DIR (UTC) (F) (DEG/KT/KT) (MB) (FT/S) (FT/S/D) BUOY 41004 0050 46 66 10/ 10/ 14 1026.9R 3/ 6 3/ 6 BUOY 41008 0050 48 53 80/ 6/ 10 1027.1R 2/ 6 2/ 60/ 6 FOLLY BEACH CMAN 0100 44 360/ 6/ 8 1027.3R CAPERS NEARSHORE 0008 44 90/ 6/ 8 1026.5R FRIPP NEARSHORE 0000 49 360/ 12/ 14 1025.6R STATION/POSITION TIME TEMP WIND PRES WAVE SWELL AIR SEA DIR/SP/G HT/PER HT/PER/DIR (UTC) (F) (DEG/KT/KT) (MB) (FT/S) (FT/S/D) 5E ST. MARYS GA 0021 55 N/A 2/ 6 FRYING PAN BUOY 0000 42 62 330/ 16/ 21 1027.0R BUOY 41025 0050 36 72 330/ 21/ 29 1026.8R 5/ 4 2/ 80/10 CAPE LOOKOUT NC NOT AVBL BUOY 41002 0050 50 68 330/ 21/ 25 N/A 9/ 8 3/320/13 BUOY 41010 0020 62 72 1023.3R ST AUGUSTINE FL 0100 52 58 10/ 14/ 16 1026.5R $$

USA.gov is the U.S. government's official web portal to all federal, state and local government web resources and services.